Time,TemperatureF,DewpointF,PressureIn,WindDirection,WindDirectionDegrees,WindSpeedMPH,WindSpeedGustMPH,Humidity,HourlyPrecipIn,Conditions,Clouds,dailyrainin,SoftwareType,DateUTC
2013-07-14 00:02:00,71.0,65.0,29.96,North,0,0.0,0.0,80,0.00,,,0.00,,2013-07-14 04:02:00,
2013-07-14 00:11:00,71.0,65.0,29.96,North,0,0.0,0.0,81,0.00,,,0.00,,2013-07-14 04:11:00,
2013-07-14 00:22:00,71.0,64.0,29.96,North,0,0.0,0.0,79,0.00,,,0.00,,2013-07-14 04:22:00,
2013-07-14 00:32:00,72.0,64.0,29.96,North,0,0.0,0.0,76,0.00,,,0.00,,2013-07-14 04:32:00,
2013-07-14 00:42:00,72.0,63.0,29.96,North,0,0.0,0.0,73,0.00,,,0.00,,2013-07-14 04:42:00,
2013-07-14 00:53:00,72.0,63.0,29.96,North,0,0.0,0.0,74,0.00,,,0.00,,2013-07-14 04:53:00,
2013-07-14 01:02:00,72.0,63.0,29.96,North,0,0.0,0.0,74,0.00,,,0.00,,2013-07-14 05:02:00,
2013-07-14 01:11:00,72.0,63.0,29.96,North,0,0.0,0.0,74,0.00,,,0.00,,2013-07-14 05:11:00,
2013-07-14 01:23:00,72.0,64.0,29.96,North,0,0.0,0.0,75,0.00,,,0.00,,2013-07-14 05:23:00,
2013-07-14 01:32:00,71.0,63.0,29.96,North,0,0.0,0.0,76,0.00,,,0.00,,2013-07-14 05:32:00,
2013-07-14 01:43:00,71.0,63.0,29.96,North,0,0.0,0.0,77,0.00,,,0.00,,2013-07-14 05:43:00,
2013-07-14 01:53:00,71.0,64.0,29.96,East,95,1.0,6.0,78,0.00,,,0.00,,2013-07-14 05:53:00,
2013-07-14 02:01:00,71.0,64.0,29.96,East,98,0.0,2.0,79,0.00,,,0.00,,2013-07-14 06:01:00,
2013-07-14 02:11:00,70.0,64.0,29.96,North,0,0.0,0.0,80,0.00,,,0.00,,2013-07-14 06:11:00,
2013-07-14 02:22:00,70.0,64.0,29.96,North,0,0.0,0.0,81,0.00,,,0.00,,2013-07-14 06:22:00,
2013-07-14 02:32:00,70.0,65.0,29.96,North,0,0.0,0.0,83,0.00,,,0.00,,2013-07-14 06:32:00,
2013-07-14 02:42:00,70.0,65.0,29.96,North,0,0.0,0.0,84,0.00,,,0.00,,2013-07-14 06:42:00,
2013-07-14 02:53:00,70.0,65.0,29.96,East,99,0.0,2.0,83,0.00,,,0.00,,2013-07-14 06:53:00,
2013-07-14 03:02:00,70.0,65.0,29.95,East,98,0.0,2.0,84,0.00,,,0.00,,2013-07-14 07:02:00,
2013-07-14 03:12:00,71.0,66.0,29.95,East,92,0.0,3.0,83,0.00,,,0.00,,2013-07-14 07:12:00,
2013-07-14 03:33:00,71.0,65.0,29.95,East,82,0.0,2.0,82,0.00,,,0.00,,2013-07-14 07:33:00,
2013-07-14 03:43:00,71.0,65.0,29.95,East,88,0.0,3.0,82,0.00,,,0.00,,2013-07-14 07:43:00,
2013-07-14 03:53:00,71.0,65.0,29.95,East,97,0.0,6.0,82,0.00,,,0.00,,2013-07-14 07:53:00,
2013-07-14 04:01:00,71.0,65.0,29.95,East,88,0.0,5.0,82,0.00,,,0.00,,2013-07-14 08:01:00,
2013-07-14 04:11:00,71.0,66.0,29.95,ESE,123,0.0,3.0,83,0.00,,,0.00,,2013-07-14 08:11:00,
2013-07-14 04:22:00,71.0,66.0,29.96,East,101,0.0,7.0,83,0.00,,,0.00,,2013-07-14 08:22:00,
2013-07-14 04:32:00,71.0,66.0,29.96,East,91,0.0,6.0,83,0.00,,,0.00,,2013-07-14 08:32:00,
2013-07-14 04:42:00,71.0,66.0,29.95,East,94,0.0,6.0,83,0.00,,,0.00,,2013-07-14 08:42:00,
2013-07-14 04:53:00,71.0,66.0,29.96,East,100,0.0,6.0,84,0.00,,,0.00,,2013-07-14 08:53:00,
2013-07-14 05:01:00,71.0,66.0,29.96,East,79,0.0,3.0,84,0.00,,,0.00,,2013-07-14 09:01:00,
2013-07-14 05:11:00,71.0,66.0,29.96,East,91,0.0,4.0,84,0.00,,,0.00,,2013-07-14 09:11:00,
2013-07-14 05:22:00,71.0,66.0,29.96,East,95,1.0,6.0,84,0.00,,,0.00,,2013-07-14 09:22:00,
2013-07-14 05:32:00,71.0,66.0,29.96,East,93,0.0,3.0,84,0.00,,,0.00,,2013-07-14 09:32:00,
2013-07-14 05:42:00,71.0,66.0,29.96,North,0,0.0,0.0,85,0.00,,,0.00,,2013-07-14 09:42:00,
2013-07-14 05:52:00,71.0,66.0,29.97,North,0,0.0,0.0,85,0.00,,,0.00,,2013-07-14 09:52:00,
2013-07-14 06:01:00,71.0,67.0,29.97,North,0,0.0,0.0,86,0.00,,,0.00,,2013-07-14 10:01:00,
2013-07-14 06:11:00,71.0,67.0,29.97,North,0,0.0,0.0,86,0.00,,,0.00,,2013-07-14 10:11:00,
2013-07-14 06:22:00,71.0,67.0,29.97,North,0,0.0,0.0,86,0.00,,,0.00,,2013-07-14 10:22:00,
2013-07-14 06:32:00,71.0,67.0,29.98,East,98,0.0,2.0,87,0.00,,,0.00,,2013-07-14 10:32:00,
2013-07-14 06:42:00,71.0,67.0,29.98,East,100,0.0,2.0,86,0.00,,,0.00,,2013-07-14 10:42:00,
2013-07-14 06:53:00,71.0,67.0,29.98,East,93,0.0,4.0,86,0.00,,,0.00,,2013-07-14 10:53:00,
2013-07-14 07:02:00,71.0,67.0,29.98,East,93,0.0,4.0,86,0.00,,,0.00,,2013-07-14 11:02:00,
2013-07-14 07:11:00,71.0,67.0,29.99,East,90,0.0,2.0,86,0.00,,,0.00,,2013-07-14 11:11:00,
2013-07-14 07:22:00,71.0,67.0,30.00,East,86,0.0,3.0,87,0.00,,,0.00,,2013-07-14 11:22:00,
2013-07-14 07:32:00,71.0,67.0,30.00,East,89,0.0,3.0,87,0.00,,,0.00,,2013-07-14 11:32:00,
2013-07-14 07:43:00,71.0,67.0,30.00,East,89,0.0,2.0,88,0.00,,,0.00,,2013-07-14 11:43:00,
2013-07-14 07:53:00,71.0,67.0,30.01,North,0,0.0,0.0,87,0.00,,,0.00,,2013-07-14 11:53:00,
2013-07-14 08:02:00,71.0,67.0,30.01,North,0,0.0,0.0,86,0.00,,,0.00,,2013-07-14 12:02:00,
2013-07-14 08:11:00,71.0,67.0,30.01,North,0,0.0,0.0,86,0.00,,,0.00,,2013-07-14 12:11:00,
2013-07-14 08:22:00,71.0,67.0,30.01,North,0,0.0,0.0,87,0.00,,,0.00,,2013-07-14 12:22:00,
2013-07-14 08:33:00,72.0,68.0,30.01,East,90,0.0,2.0,87,0.00,,,0.00,,2013-07-14 12:33:00,
2013-07-14 08:43:00,72.0,68.0,30.01,North,0,0.0,0.0,87,0.00,,,0.00,,2013-07-14 12:43:00,
2013-07-14 08:52:00,72.0,68.0,30.01,East,89,0.0,3.0,86,0.00,,,0.00,,2013-07-14 12:52:00,
2013-07-14 09:01:00,72.0,68.0,30.02,East,98,1.0,5.0,87,0.00,,,0.00,,2013-07-14 13:01:00,
2013-07-14 09:11:00,72.0,68.0,30.02,East,90,1.0,5.0,86,0.00,,,0.00,,2013-07-14 13:11:00,
2013-07-14 09:22:00,72.0,67.0,30.03,East,95,1.0,6.0,85,0.00,,,0.00,,2013-07-14 13:22:00,
2013-07-14 09:32:00,73.0,68.0,30.03,East,90,1.0,5.0,84,0.00,,,0.00,,2013-07-14 13:32:00,
2013-07-14 09:42:00,74.0,68.0,30.03,East,92,1.0,6.0,83,0.00,,,0.00,,2013-07-14 13:42:00,
2013-07-14 09:53:00,74.0,68.0,30.03,East,92,0.0,3.0,83,0.00,,,0.00,,2013-07-14 13:53:00,
2013-07-14 10:02:00,74.0,68.0,30.04,East,87,0.0,2.0,82,0.00,,,0.00,,2013-07-14 14:02:00,
2013-07-14 10:11:00,75.0,69.0,30.04,East,91,1.0,6.0,81,0.00,,,0.00,,2013-07-14 14:11:00,
2013-07-14 10:23:00,75.0,69.0,30.04,East,82,1.0,7.0,81,0.00,,,0.00,,2013-07-14 14:23:00,
2013-07-14 10:33:00,75.0,69.0,30.04,East,87,1.0,6.0,81,0.00,,,0.00,,2013-07-14 14:33:00,
2013-07-14 10:43:00,75.0,68.0,30.05,East,94,2.0,7.0,80,0.00,,,0.00,,2013-07-14 14:43:00,
2013-07-14 10:53:00,75.0,68.0,30.05,East,94,2.0,7.0,80,0.00,,,0.00,,2013-07-14 14:53:00,
2013-07-14 11:01:00,76.0,69.0,30.05,ESE,111,2.0,11.0,79,0.00,,,0.00,,2013-07-14 15:01:00,
2013-07-14 11:12:00,77.0,69.0,30.04,East,97,2.0,10.0,77,0.00,,,0.00,,2013-07-14 15:12:00,
2013-07-14 11:22:00,78.0,70.0,30.04,ESE,103,2.0,8.0,76,0.00,,,0.00,,2013-07-14 15:22:00,
2013-07-14 11:32:00,78.0,69.0,30.04,ESE,106,3.0,11.0,74,0.00,,,0.00,,2013-07-14 15:32:00,
2013-07-14 11:42:00,79.0,69.0,30.04,ESE,102,3.0,10.0,72,0.00,,,0.00,,2013-07-14 15:42:00,
2013-07-14 11:53:00,79.0,70.0,30.05,ESE,105,3.0,10.0,73,0.00,,,0.00,,2013-07-14 15:53:00,
2013-07-14 12:01:00,79.0,70.0,30.05,East,101,2.0,8.0,74,0.00,,,0.00,,2013-07-14 16:01:00,
2013-07-14 12:11:00,79.0,70.0,30.05,East,97,2.0,13.0,75,0.00,,,0.00,,2013-07-14 16:11:00,
2013-07-14 12:22:00,80.0,69.0,30.04,East,85,2.0,12.0,70,0.00,,,0.00,,2013-07-14 16:22:00,
2013-07-14 12:32:00,81.0,71.0,30.05,East,95,2.0,9.0,71,0.00,,,0.00,,2013-07-14 16:32:00,
2013-07-14 12:43:00,82.0,71.0,30.05,ESE,107,1.0,7.0,70,0.00,,,0.00,,2013-07-14 16:43:00,
2013-07-14 12:53:00,81.0,70.0,30.05,ESE,110,3.0,10.0,69,0.00,,,0.00,,2013-07-14 16:53:00,
2013-07-14 13:02:00,81.0,69.0,30.04,ESE,113,2.0,7.0,68,0.00,,,0.00,,2013-07-14 17:02:00,
2013-07-14 13:11:00,81.0,70.0,30.04,ESE,111,1.0,7.0,69,0.00,,,0.00,,2013-07-14 17:11:00,
2013-07-14 13:22:00,81.0,69.0,30.04,ESE,113,1.0,6.0,68,0.00,,,0.00,,2013-07-14 17:22:00,
2013-07-14 13:32:00,82.0,70.0,30.04,East,98,4.0,10.0,67,0.00,,,0.00,,2013-07-14 17:32:00,
2013-07-14 13:43:00,82.0,69.0,30.04,ESE,104,3.0,11.0,66,0.00,,,0.00,,2013-07-14 17:43:00,
2013-07-14 13:53:00,82.0,70.0,30.04,ESE,105,2.0,8.0,68,0.00,,,0.00,,2013-07-14 17:53:00,
2013-07-14 14:01:00,83.0,70.0,30.03,East,90,2.0,7.0,64,0.00,,,0.00,,2013-07-14 18:01:00,
2013-07-14 14:11:00,83.0,70.0,30.03,East,83,1.0,6.0,64,0.00,,,0.00,,2013-07-14 18:11:00,
2013-07-14 14:22:00,83.0,70.0,30.03,East,84,1.0,6.0,65,0.00,,,0.00,,2013-07-14 18:22:00,
2013-07-14 14:32:00,83.0,70.0,30.03,East,84,0.0,4.0,65,0.00,,,0.00,,2013-07-14 18:32:00,
2013-07-14 14:42:00,84.0,70.0,30.03,ENE,70,1.0,6.0,62,0.00,,,0.00,,2013-07-14 18:42:00,
2013-07-14 14:52:00,82.0,69.0,30.03,East,81,1.0,6.0,65,0.00,,,0.00,,2013-07-14 18:52:00,
2013-07-14 15:01:00,78.0,71.0,30.04,ESE,107,4.0,17.0,79,0.05,,,0.05,,2013-07-14 19:01:00,
2013-07-14 15:32:00,78.0,73.0,30.03,East,90,0.0,2.0,84,0.05,,,0.05,,2013-07-14 19:32:00,
2013-07-14 15:43:00,79.0,73.0,30.02,North,0,0.0,0.0,82,0.05,,,0.05,,2013-07-14 19:43:00,
2013-07-14 16:02:00,82.0,72.0,30.01,East,82,0.0,5.0,72,0.00,,,0.05,,2013-07-14 20:02:00,
2013-07-14 16:11:00,82.0,72.0,30.01,East,82,0.0,5.0,72,0.00,,,0.05,,2013-07-14 20:11:00,
2013-07-14 16:22:00,83.0,72.0,30.01,East,90,0.0,5.0,70,0.00,,,0.05,,2013-07-14 20:22:00,
2013-07-14 16:32:00,83.0,71.0,30.01,ENE,74,0.0,5.0,67,0.00,,,0.05,,2013-07-14 20:32:00,
2013-07-14 16:43:00,83.0,72.0,30.00,ESE,119,0.0,7.0,70,0.00,,,0.05,,2013-07-14 20:43:00,
2013-07-14 16:53:00,83.0,72.0,30.00,East,94,1.0,6.0,69,0.00,,,0.05,,2013-07-14 20:53:00,
2013-07-14 17:01:00,84.0,72.0,30.00,East,94,0.0,6.0,68,0.00,,,0.05,,2013-07-14 21:01:00,
2013-07-14 17:11:00,85.0,72.0,30.00,East,89,1.0,6.0,66,0.00,,,0.05,,2013-07-14 21:11:00,
2013-07-14 17:22:00,85.0,71.0,29.99,East,89,1.0,8.0,63,0.00,,,0.05,,2013-07-14 21:22:00,
2013-07-14 17:32:00,86.0,72.0,29.99,East,101,0.0,7.0,64,0.00,,,0.05,,2013-07-14 21:32:00,
2013-07-14 17:43:00,85.0,70.0,29.99,East,96,1.0,10.0,62,0.00,,,0.05,,2013-07-14 21:43:00,
2013-07-14 17:52:00,85.0,70.0,29.99,ENE,76,0.0,6.0,62,0.00,,,0.05,,2013-07-14 21:52:00,
2013-07-14 18:01:00,86.0,71.0,29.99,ESE,102,1.0,8.0,62,0.00,,,0.05,,2013-07-14 22:01:00,
2013-07-14 18:11:00,86.0,70.0,29.99,East,101,2.0,8.0,60,0.00,,,0.05,,2013-07-14 22:11:00,
2013-07-14 18:22:00,84.0,70.0,29.99,ESE,106,0.0,6.0,63,0.00,,,0.05,,2013-07-14 22:22:00,
2013-07-14 18:32:00,84.0,71.0,29.99,ESE,103,0.0,3.0,65,0.00,,,0.05,,2013-07-14 22:32:00,
2013-07-14 18:42:00,85.0,71.0,29.99,East,96,0.0,1.0,63,0.00,,,0.05,,2013-07-14 22:42:00,
2013-07-14 18:53:00,85.0,72.0,29.99,East,89,0.0,3.0,66,0.00,,,0.05,,2013-07-14 22:53:00,
2013-07-14 19:01:00,84.0,71.0,29.99,East,98,1.0,8.0,66,0.00,,,0.05,,2013-07-14 23:01:00,
2013-07-14 19:11:00,83.0,70.0,29.99,East,96,0.0,2.0,66,0.00,,,0.05,,2013-07-14 23:11:00,
2013-07-14 19:22:00,83.0,71.0,29.99,East,96,0.0,3.0,68,0.00,,,0.05,,2013-07-14 23:22:00,
2013-07-14 19:32:00,84.0,72.0,30.00,East,87,0.0,5.0,67,0.00,,,0.05,,2013-07-14 23:32:00,
2013-07-14 19:42:00,83.0,71.0,30.00,East,89,0.0,5.0,68,0.00,,,0.05,,2013-07-14 23:42:00,
2013-07-14 19:53:00,83.0,71.0,30.00,East,90,0.0,3.0,67,0.00,,,0.05,,2013-07-14 23:53:00,
2013-07-14 20:02:00,82.0,70.0,30.00,ESE,103,0.0,1.0,68,0.00,,,0.05,,2013-07-15 00:02:00,
2013-07-14 20:11:00,82.0,70.0,30.00,ESE,103,0.0,1.0,68,0.00,,,0.05,,2013-07-15 00:11:00,
2013-07-14 20:22:00,83.0,72.0,30.00,North,0,0.0,0.0,69,0.00,,,0.05,,2013-07-15 00:22:00,
2013-07-14 20:32:00,83.0,72.0,30.00,North,0,0.0,0.0,69,0.00,,,0.05,,2013-07-15 00:32:00,
2013-07-14 20:43:00,83.0,72.0,30.01,North,0,0.0,0.0,70,0.00,,,0.05,,2013-07-15 00:43:00,
2013-07-14 20:53:00,83.0,74.0,30.01,North,0,0.0,0.0,74,0.00,,,0.05,,2013-07-15 00:53:00,
2013-07-14 21:01:00,82.0,73.0,30.01,North,0,0.0,0.0,74,0.00,,,0.05,,2013-07-15 01:01:00,
2013-07-14 21:11:00,81.0,72.0,30.01,North,0,0.0,0.0,75,0.00,,,0.05,,2013-07-15 01:11:00,
2013-07-14 21:22:00,80.0,72.0,30.02,North,0,0.0,0.0,78,0.00,,,0.05,,2013-07-15 01:22:00,
2013-07-14 21:32:00,79.0,72.0,30.02,North,0,0.0,0.0,78,0.00,,,0.05,,2013-07-15 01:32:00,
2013-07-14 21:43:00,79.0,72.0,30.02,North,0,0.0,0.0,80,0.00,,,0.05,,2013-07-15 01:43:00,
2013-07-14 21:53:00,79.0,73.0,30.02,North,0,0.0,0.0,81,0.00,,,0.05,,2013-07-15 01:53:00,
2013-07-14 22:02:00,78.0,72.0,30.03,North,0,0.0,0.0,82,0.00,,,0.05,,2013-07-15 02:02:00,
2013-07-14 22:11:00,77.0,71.0,30.03,North,0,0.0,0.0,83,0.00,,,0.05,,2013-07-15 02:11:00,
2013-07-14 22:22:00,77.0,71.0,30.03,North,0,0.0,0.0,83,0.00,,,0.05,,2013-07-15 02:22:00,
2013-07-14 22:32:00,77.0,72.0,30.04,North,0,0.0,0.0,84,0.00,,,0.05,,2013-07-15 02:32:00,
2013-07-14 22:42:00,76.0,71.0,30.04,North,0,0.0,0.0,85,0.00,,,0.05,,2013-07-15 02:42:00,
2013-07-14 22:53:00,76.0,72.0,30.04,North,0,0.0,0.0,86,0.00,,,0.05,,2013-07-15 02:53:00,
2013-07-14 23:02:00,76.0,72.0,30.05,North,0,0.0,0.0,86,0.00,,,0.05,,2013-07-15 03:02:00,
2013-07-14 23:11:00,76.0,72.0,30.05,ESE,102,0.0,3.0,86,0.00,,,0.05,,2013-07-15 03:11:00,
2013-07-14 23:22:00,77.0,71.0,30.04,East,99,0.0,2.0,82,0.00,,,0.05,,2013-07-15 03:22:00,
2013-07-14 23:32:00,77.0,71.0,30.04,East,98,0.0,3.0,81,0.00,,,0.05,,2013-07-15 03:32:00,
2013-07-14 23:43:00,77.0,71.0,30.04,North,0,0.0,0.0,82,0.00,,,0.05,,2013-07-15 03:43:00,
2013-07-14 23:53:00,77.0,71.0,30.04,North,0,0.0,0.0,83,0.00,,,0.05,,2013-07-15 03:53:00,